Time,TemperatureF,DewpointF,PressureIn,WindDirection,WindDirectionDegrees,WindSpeedMPH,WindSpeedGustMPH,Humidity,HourlyPrecipIn,Conditions,Clouds,dailyrainin,SoftwareType,DateUTC
2013-03-15 00:03:00,49.0,-99.9,30.11,West,272,13.0,15.0,-999,-99.99,,,-99.99,,2013-03-15 04:03:00,
2013-03-15 00:23:00,48.0,-99.9,30.11,West,270,13.0,15.0,-999,-99.99,,,-99.99,,2013-03-15 04:23:00,
2013-03-15 00:33:00,48.0,-99.9,30.11,West,271,13.0,16.0,-999,-99.99,,,-99.99,,2013-03-15 04:33:00,
2013-03-15 00:43:00,48.0,-99.9,30.11,West,274,13.0,15.0,-999,-99.99,,,-99.99,,2013-03-15 04:43:00,
2013-03-15 00:53:00,48.0,-99.9,30.11,WNW,285,14.0,16.0,-999,-99.99,,,-99.99,,2013-03-15 04:53:00,
2013-03-15 01:03:00,49.0,-99.9,30.11,WNW,286,17.0,20.0,-999,-99.99,,,-99.99,,2013-03-15 05:03:00,
2013-03-15 01:12:00,48.0,-99.9,30.11,WNW,287,14.0,17.0,-999,-99.99,,,-99.99,,2013-03-15 05:12:00,
2013-03-15 01:23:00,48.0,-99.9,30.11,WNW,289,15.0,17.0,-999,-99.99,,,-99.99,,2013-03-15 05:23:00,
2013-03-15 01:32:00,48.0,-99.9,30.11,WNW,291,14.0,16.0,-999,-99.99,,,-99.99,,2013-03-15 05:32:00,
2013-03-15 01:42:00,48.0,-99.9,30.11,WNW,294,15.0,17.0,-999,-99.99,,,-99.99,,2013-03-15 05:42:00,
2013-03-15 01:52:00,48.0,-99.9,30.11,WNW,297,15.0,17.0,-999,-99.99,,,-99.99,,2013-03-15 05:52:00,
2013-03-15 02:02:00,48.0,-99.9,30.11,WNW,296,15.0,17.0,-999,-99.99,,,-99.99,,2013-03-15 06:02:00,
2013-03-15 02:13:00,48.0,-99.9,30.11,WNW,296,14.0,16.0,-999,-99.99,,,-99.99,,2013-03-15 06:13:00,
2013-03-15 02:22:00,48.0,-99.9,30.11,WNW,292,13.0,16.0,-999,-99.99,,,-99.99,,2013-03-15 06:22:00,
2013-03-15 02:33:00,48.0,-99.9,30.11,WNW,289,13.0,16.0,-999,-99.99,,,-99.99,,2013-03-15 06:33:00,
2013-03-15 02:43:00,48.0,-99.9,30.11,WNW,292,14.0,16.0,-999,-99.99,,,-99.99,,2013-03-15 06:43:00,
2013-03-15 02:53:00,48.0,-99.9,30.11,WNW,289,15.0,17.0,-999,-99.99,,,-99.99,,2013-03-15 06:53:00,
2013-03-15 03:02:00,48.0,-99.9,30.11,WNW,291,16.0,18.0,-999,-99.99,,,-99.99,,2013-03-15 07:02:00,
2013-03-15 03:13:00,48.0,-99.9,30.11,WNW,296,19.0,22.0,-999,-99.99,,,-99.99,,2013-03-15 07:13:00,
2013-03-15 03:22:00,48.0,-99.9,30.11,WNW,298,19.0,24.0,-999,-99.99,,,-99.99,,2013-03-15 07:22:00,
2013-03-15 03:32:00,48.0,-99.9,30.11,WNW,297,21.0,25.0,-999,-99.99,,,-99.99,,2013-03-15 07:32:00,
2013-03-15 03:42:00,48.0,-99.9,30.11,WNW,302,21.0,25.0,-999,-99.99,,,-99.99,,2013-03-15 07:42:00,
2013-03-15 03:52:00,47.0,-99.9,30.11,WNW,302,21.0,24.0,-999,-99.99,,,-99.99,,2013-03-15 07:52:00,
2013-03-15 04:03:00,47.0,-99.9,30.11,NW,307,19.0,22.0,-999,-99.99,,,-99.99,,2013-03-15 08:03:00,
2013-03-15 04:12:00,47.0,-99.9,30.11,WNW,303,19.0,23.0,-999,-99.99,,,-99.99,,2013-03-15 08:12:00,
2013-03-15 04:23:00,46.0,-99.9,30.11,NW,311,19.0,23.0,-999,-99.99,,,-99.99,,2013-03-15 08:23:00,
2013-03-15 04:33:00,46.0,-99.9,30.11,NW,314,20.0,22.0,-999,-99.99,,,-99.99,,2013-03-15 08:33:00,
2013-03-15 04:42:00,46.0,-99.9,30.11,NW,313,20.0,23.0,-999,-99.99,,,-99.99,,2013-03-15 08:42:00,
2013-03-15 04:53:00,46.0,-99.9,30.11,NW,318,19.0,22.0,-999,-99.99,,,-99.99,,2013-03-15 08:53:00,
2013-03-15 05:02:00,45.0,-99.9,30.10,NW,322,18.0,21.0,-999,-99.99,,,-99.99,,2013-03-15 09:02:00,
2013-03-15 05:12:00,45.0,-99.9,30.11,NW,324,17.0,20.0,-999,-99.99,,,-99.99,,2013-03-15 09:12:00,
2013-03-15 05:22:00,45.0,-99.9,30.11,NNW,331,15.0,18.0,-999,-99.99,,,-99.99,,2013-03-15 09:22:00,
2013-03-15 05:34:00,45.0,-99.9,30.11,NNW,338,15.0,18.0,-999,-99.99,,,-99.99,,2013-03-15 09:34:00,
2013-03-15 05:43:00,44.0,-99.9,30.11,NNW,335,14.0,17.0,-999,-99.99,,,-99.99,,2013-03-15 09:43:00,
2013-03-15 05:53:00,44.0,-99.9,30.12,NNW,338,12.0,15.0,-999,-99.99,,,-99.99,,2013-03-15 09:53:00,
2013-03-15 06:03:00,44.0,-99.9,30.12,North,355,11.0,13.0,-999,-99.99,,,-99.99,,2013-03-15 10:03:00,
2013-03-15 06:13:00,44.0,-99.9,30.12,NNW,344,11.0,13.0,-999,-99.99,,,-99.99,,2013-03-15 10:13:00,
2013-03-15 06:23:00,44.0,-99.9,30.12,North,351,10.0,13.0,-999,-99.99,,,-99.99,,2013-03-15 10:23:00,
2013-03-15 06:33:00,44.0,-99.9,30.13,NNW,334,9.0,12.0,-999,-99.99,,,-99.99,,2013-03-15 10:33:00,
2013-03-15 06:43:00,44.0,-99.9,30.13,NNW,331,9.0,11.0,-999,-99.99,,,-99.99,,2013-03-15 10:43:00,
2013-03-15 06:52:00,44.0,-99.9,30.14,North,8,9.0,10.0,-999,-99.99,,,-99.99,,2013-03-15 10:52:00,
2013-03-15 07:03:00,44.0,-99.9,30.14,NNW,331,7.0,10.0,-999,-99.99,,,-99.99,,2013-03-15 11:03:00,
2013-03-15 07:12:00,44.0,-99.9,30.14,North,357,7.0,9.0,-999,-99.99,,,-99.99,,2013-03-15 11:12:00,
2013-03-15 07:23:00,43.0,-99.9,30.14,NE,52,4.0,9.0,-999,-99.99,,,-99.99,,2013-03-15 11:23:00,
2013-03-15 07:33:00,43.0,-99.9,30.13,East,85,2.0,3.0,-999,-99.99,,,-99.99,,2013-03-15 11:33:00,
2013-03-15 07:43:00,43.0,-99.9,30.13,East,79,2.0,3.0,-999,-99.99,,,-99.99,,2013-03-15 11:43:00,
2013-03-15 07:53:00,43.0,-99.9,30.13,East,89,1.0,2.0,-999,-99.99,,,-99.99,,2013-03-15 11:53:00,
2013-03-15 08:02:00,43.0,-99.9,30.13,ESE,109,1.0,2.0,-999,-99.99,,,-99.99,,2013-03-15 12:02:00,
2013-03-15 08:12:00,44.0,-99.9,30.13,ESE,102,2.0,2.0,-999,-99.99,,,-99.99,,2013-03-15 12:12:00,
2013-03-15 08:23:00,44.0,-99.9,30.13,East,92,3.0,3.0,-999,-99.99,,,-99.99,,2013-03-15 12:23:00,
2013-03-15 08:32:00,45.0,-99.9,30.14,East,92,2.0,3.0,-999,-99.99,,,-99.99,,2013-03-15 12:32:00,
2013-03-15 08:42:00,46.0,-99.9,30.14,East,99,1.0,2.0,-999,-99.99,,,-99.99,,2013-03-15 12:42:00,
2013-03-15 08:52:00,47.0,-99.9,30.14,ESE,111,2.0,2.0,-999,-99.99,,,-99.99,,2013-03-15 12:52:00,
2013-03-15 09:02:00,47.0,-99.9,30.15,SE,135,2.0,3.0,-999,-99.99,,,-99.99,,2013-03-15 13:02:00,
2013-03-15 09:12:00,47.0,-99.9,30.15,NNW,346,1.0,1.0,-999,-99.99,,,-99.99,,2013-03-15 13:12:00,
2013-03-15 09:22:00,46.0,-99.9,30.15,WNW,292,2.0,3.0,-999,-99.99,,,-99.99,,2013-03-15 13:22:00,
2013-03-15 09:32:00,45.0,-99.9,30.16,WNW,287,5.0,6.0,-999,-99.99,,,-99.99,,2013-03-15 13:32:00,
2013-03-15 09:42:00,45.0,-99.9,30.15,West,281,5.0,6.0,-999,-99.99,,,-99.99,,2013-03-15 13:42:00,
2013-03-15 09:53:00,45.0,-99.9,30.15,West,279,4.0,6.0,-999,-99.99,,,-99.99,,2013-03-15 13:53:00,
2013-03-15 10:02:00,45.0,-99.9,30.15,West,281,5.0,6.0,-999,-99.99,,,-99.99,,2013-03-15 14:02:00,
2013-03-15 10:12:00,45.0,-99.9,30.15,West,275,4.0,6.0,-999,-99.99,,,-99.99,,2013-03-15 14:12:00,
2013-03-15 10:22:00,46.0,-99.9,30.15,West,275,3.0,6.0,-999,-99.99,,,-99.99,,2013-03-15 14:22:00,
2013-03-15 10:33:00,46.0,-99.9,30.16,West,274,5.0,6.0,-999,-99.99,,,-99.99,,2013-03-15 14:33:00,
2013-03-15 10:42:00,45.0,-99.9,30.16,West,269,5.0,7.0,-999,-99.99,,,-99.99,,2013-03-15 14:42:00,
2013-03-15 10:53:00,46.0,-99.9,30.16,West,277,6.0,6.0,-999,-99.99,,,-99.99,,2013-03-15 14:53:00,
2013-03-15 11:02:00,46.0,-99.9,30.16,West,272,6.0,9.0,-999,-99.99,,,-99.99,,2013-03-15 15:02:00,
2013-03-15 11:13:00,45.0,-99.9,30.16,WNW,283,8.0,10.0,-999,-99.99,,,-99.99,,2013-03-15 15:13:00,
2013-03-15 11:23:00,45.0,-99.9,30.15,West,271,7.0,8.0,-999,-99.99,,,-99.99,,2013-03-15 15:23:00,
2013-03-15 11:33:00,46.0,-99.9,30.15,West,272,6.0,8.0,-999,-99.99,,,-99.99,,2013-03-15 15:33:00,
2013-03-15 11:43:00,46.0,-99.9,30.15,West,269,7.0,9.0,-999,-99.99,,,-99.99,,2013-03-15 15:43:00,
2013-03-15 11:53:00,46.0,-99.9,30.14,West,274,6.0,8.0,-999,-99.99,,,-99.99,,2013-03-15 15:53:00,
2013-03-15 12:03:00,46.0,-99.9,30.14,West,265,6.0,8.0,-999,-99.99,,,-99.99,,2013-03-15 16:03:00,
2013-03-15 12:13:00,47.0,-99.9,30.14,West,266,5.0,9.0,-999,-99.99,,,-99.99,,2013-03-15 16:13:00,
2013-03-15 12:23:00,47.0,-99.9,30.14,SSW,211,4.0,10.0,-999,-99.99,,,-99.99,,2013-03-15 16:23:00,
2013-03-15 12:32:00,47.0,-99.9,30.14,SW,215,8.0,11.0,-999,-99.99,,,-99.99,,2013-03-15 16:32:00,
2013-03-15 12:42:00,47.0,-99.9,30.13,SW,234,8.0,11.0,-999,-99.99,,,-99.99,,2013-03-15 16:42:00,
2013-03-15 12:53:00,47.0,-99.9,30.12,SSW,211,9.0,12.0,-999,-99.99,,,-99.99,,2013-03-15 16:53:00,
2013-03-15 13:02:00,47.0,-99.9,30.12,SW,222,10.0,12.0,-999,-99.99,,,-99.99,,2013-03-15 17:02:00,
2013-03-15 13:12:00,48.0,-99.9,30.11,SSW,203,6.0,11.0,-999,-99.99,,,-99.99,,2013-03-15 17:12:00,
2013-03-15 13:23:00,47.0,-99.9,30.11,SSW,213,8.0,13.0,-999,-99.99,,,-99.99,,2013-03-15 17:23:00,
2013-03-15 13:33:00,47.0,-99.9,30.11,SW,219,9.0,14.0,-999,-99.99,,,-99.99,,2013-03-15 17:33:00,
2013-03-15 13:43:00,47.0,-99.9,30.10,SSW,211,10.0,14.0,-999,-99.99,,,-99.99,,2013-03-15 17:43:00,
2013-03-15 13:53:00,48.0,-99.9,30.10,SW,228,11.0,15.0,-999,-99.99,,,-99.99,,2013-03-15 17:53:00,
2013-03-15 14:03:00,48.0,-99.9,30.09,SSW,212,11.0,15.0,-999,-99.99,,,-99.99,,2013-03-15 18:03:00,
2013-03-15 14:12:00,48.0,-99.9,30.09,SSW,212,9.0,13.0,-999,-99.99,,,-99.99,,2013-03-15 18:12:00,
2013-03-15 14:22:00,48.0,-99.9,30.09,SW,220,10.0,14.0,-999,-99.99,,,-99.99,,2013-03-15 18:22:00,
2013-03-15 14:32:00,48.0,-99.9,30.07,SW,220,10.0,15.0,-999,-99.99,,,-99.99,,2013-03-15 18:32:00,
2013-03-15 14:42:00,48.0,-99.9,30.07,SW,214,11.0,15.0,-999,-99.99,,,-99.99,,2013-03-15 18:42:00,
2013-03-15 14:53:00,49.0,-99.9,30.06,SSW,210,10.0,16.0,-999,-99.99,,,-99.99,,2013-03-15 18:53:00,
2013-03-15 15:02:00,48.0,-99.9,30.05,SSW,211,10.0,15.0,-999,-99.99,,,-99.99,,2013-03-15 19:02:00,
2013-03-15 15:13:00,49.0,-99.9,30.04,SSW,210,10.0,17.0,-999,-99.99,,,-99.99,,2013-03-15 19:13:00,
2013-03-15 15:23:00,49.0,-99.9,30.04,SSW,205,12.0,16.0,-999,-99.99,,,-99.99,,2013-03-15 19:23:00,
2013-03-15 15:32:00,49.0,-99.9,30.04,SSW,213,12.0,17.0,-999,-99.99,,,-99.99,,2013-03-15 19:32:00,
2013-03-15 15:42:00,49.0,-99.9,30.03,SSW,209,14.0,19.0,-999,-99.99,,,-99.99,,2013-03-15 19:42:00,
2013-03-15 15:53:00,50.0,-99.9,30.03,SW,214,14.0,18.0,-999,-99.99,,,-99.99,,2013-03-15 19:53:00,
2013-03-15 16:03:00,50.0,-99.9,30.02,SSW,212,15.0,21.0,-999,-99.99,,,-99.99,,2013-03-15 20:03:00,
2013-03-15 16:12:00,50.0,-99.9,30.01,SW,217,15.0,20.0,-999,-99.99,,,-99.99,,2013-03-15 20:12:00,
2013-03-15 16:22:00,50.0,-99.9,30.01,SW,217,15.0,20.0,-999,-99.99,,,-99.99,,2013-03-15 20:22:00,
2013-03-15 16:32:00,51.0,-99.9,30.00,SW,218,14.0,20.0,-999,-99.99,,,-99.99,,2013-03-15 20:32:00,
2013-03-15 16:42:00,51.0,-99.9,30.00,SW,217,13.0,20.0,-999,-99.99,,,-99.99,,2013-03-15 20:42:00,
2013-03-15 16:52:00,50.0,-99.9,30.00,SW,221,15.0,20.0,-999,-99.99,,,-99.99,,2013-03-15 20:52:00,
2013-03-15 17:02:00,50.0,-99.9,30.00,SW,219,16.0,25.0,-999,-99.99,,,-99.99,,2013-03-15 21:02:00,
2013-03-15 17:12:00,51.0,-99.9,29.99,SW,217,15.0,23.0,-999,-99.99,,,-99.99,,2013-03-15 21:12:00,
2013-03-15 17:22:00,51.0,-99.9,29.99,SW,219,16.0,23.0,-999,-99.99,,,-99.99,,2013-03-15 21:22:00,
2013-03-15 17:33:00,51.0,-99.9,29.98,SW,216,17.0,24.0,-999,-99.99,,,-99.99,,2013-03-15 21:33:00,
2013-03-15 17:43:00,51.0,-99.9,29.98,SW,217,16.0,23.0,-999,-99.99,,,-99.99,,2013-03-15 21:43:00,
2013-03-15 17:53:00,51.0,-99.9,29.97,SW,216,16.0,23.0,-999,-99.99,,,-99.99,,2013-03-15 21:53:00,
2013-03-15 18:04:00,51.0,-99.9,29.97,SW,215,17.0,22.0,-999,-99.99,,,-99.99,,2013-03-15 22:04:00,
2013-03-15 18:14:00,51.0,-99.9,29.97,SW,219,14.0,22.0,-999,-99.99,,,-99.99,,2013-03-15 22:14:00,
2013-03-15 18:22:00,51.0,-99.9,29.97,SW,220,16.0,23.0,-999,-99.99,,,-99.99,,2013-03-15 22:22:00,
2013-03-15 18:33:00,51.0,-99.9,29.97,SW,219,16.0,22.0,-999,-99.99,,,-99.99,,2013-03-15 22:33:00,
2013-03-15 18:42:00,51.0,-99.9,29.97,SW,219,15.0,23.0,-999,-99.99,,,-99.99,,2013-03-15 22:42:00,
2013-03-15 18:53:00,51.0,-99.9,29.97,SW,225,18.0,24.0,-999,-99.99,,,-99.99,,2013-03-15 22:53:00,
2013-03-15 19:03:00,51.0,-99.9,29.97,SW,226,17.0,25.0,-999,-99.99,,,-99.99,,2013-03-15 23:03:00,
2013-03-15 19:12:00,51.0,-99.9,29.98,SW,226,15.0,23.0,-999,-99.99,,,-99.99,,2013-03-15 23:12:00,
2013-03-15 19:22:00,51.0,-99.9,29.98,SW,224,16.0,23.0,-999,-99.99,,,-99.99,,2013-03-15 23:22:00,
2013-03-15 19:32:00,51.0,-99.9,29.97,SW,225,16.0,22.0,-999,-99.99,,,-99.99,,2013-03-15 23:32:00,
2013-03-15 19:43:00,51.0,-99.9,29.97,SW,222,18.0,22.0,-999,-99.99,,,-99.99,,2013-03-15 23:43:00,
2013-03-15 19:53:00,51.0,-99.9,29.97,SW,221,16.0,26.0,-999,-99.99,,,-99.99,,2013-03-15 23:53:00,
2013-03-15 20:03:00,51.0,-99.9,29.96,SW,222,15.0,21.0,-999,-99.99,,,-99.99,,2013-03-16 00:03:00,
2013-03-15 20:12:00,51.0,-99.9,29.96,SW,223,15.0,22.0,-999,-99.99,,,-99.99,,2013-03-16 00:12:00,
2013-03-15 20:22:00,51.0,-99.9,29.96,SW,222,16.0,21.0,-999,-99.99,,,-99.99,,2013-03-16 00:22:00,
2013-03-15 20:32:00,51.0,-99.9,29.96,SW,222,16.0,21.0,-999,-99.99,,,-99.99,,2013-03-16 00:32:00,
2013-03-15 20:42:00,51.0,-99.9,29.96,SW,226,15.0,22.0,-999,-99.99,,,-99.99,,2013-03-16 00:42:00,
2013-03-15 20:52:00,51.0,-99.9,29.96,SW,226,13.0,21.0,-999,-99.99,,,-99.99,,2013-03-16 00:52:00,
2013-03-15 21:03:00,51.0,-99.9,29.96,SW,224,14.0,23.0,-999,-99.99,,,-99.99,,2013-03-16 01:03:00,
2013-03-15 21:12:00,51.0,-99.9,29.96,SW,225,14.0,21.0,-999,-99.99,,,-99.99,,2013-03-16 01:12:00,
2013-03-15 21:22:00,51.0,-99.9,29.96,SW,226,14.0,21.0,-999,-99.99,,,-99.99,,2013-03-16 01:22:00,
2013-03-15 21:32:00,51.0,-99.9,29.96,SW,226,13.0,18.0,-999,-99.99,,,-99.99,,2013-03-16 01:32:00,
2013-03-15 21:42:00,51.0,-99.9,29.96,SW,224,13.0,19.0,-999,-99.99,,,-99.99,,2013-03-16 01:42:00,
2013-03-15 21:53:00,51.0,-99.9,29.96,SW,224,13.0,17.0,-999,-99.99,,,-99.99,,2013-03-16 01:53:00,
2013-03-15 22:02:00,51.0,-99.9,29.96,SW,225,13.0,17.0,-999,-99.99,,,-99.99,,2013-03-16 02:02:00,
2013-03-15 22:13:00,51.0,-99.9,29.96,SW,229,13.0,18.0,-999,-99.99,,,-99.99,,2013-03-16 02:13:00,
2013-03-15 22:23:00,52.0,-99.9,29.96,SW,228,13.0,19.0,-999,-99.99,,,-99.99,,2013-03-16 02:23:00,
2013-03-15 22:33:00,52.0,-99.9,29.96,SW,227,13.0,18.0,-999,-99.99,,,-99.99,,2013-03-16 02:33:00,
2013-03-15 22:43:00,52.0,-99.9,29.96,SW,227,13.0,18.0,-999,-99.99,,,-99.99,,2013-03-16 02:43:00,
2013-03-15 22:53:00,52.0,-99.9,29.96,SW,230,13.0,19.0,-999,-99.99,,,-99.99,,2013-03-16 02:53:00,
2013-03-15 23:02:00,52.0,-99.9,29.96,SW,229,13.0,18.0,-999,-99.99,,,-99.99,,2013-03-16 03:02:00,
2013-03-15 23:12:00,52.0,-99.9,29.96,SW,225,13.0,19.0,-999,-99.99,,,-99.99,,2013-03-16 03:12:00,
2013-03-15 23:22:00,52.0,-99.9,29.95,SW,226,13.0,19.0,-999,-99.99,,,-99.99,,2013-03-16 03:22:00,
2013-03-15 23:33:00,52.0,-99.9,29.95,SW,224,12.0,18.0,-999,-99.99,,,-99.99,,2013-03-16 03:33:00,
2013-03-15 23:43:00,53.0,-99.9,29.95,SW,225,12.0,18.0,-999,-99.99,,,-99.99,,2013-03-16 03:43:00,
2013-03-15 23:53:00,53.0,-99.9,29.95,SW,232,14.0,20.0,-999,-99.99,,,-99.99,,2013-03-16 03:53:00,